TimeEDT,TemperatureF,Dew PointF,Humidity,Sea Level PressureIn,VisibilityMPH,Wind Direction,Wind SpeedMPH,Gust SpeedMPH,PrecipitationIn,Events,Conditions,WindDirDegrees,DateUTC
12:52 AM,53.1,46.0,77,30.01,10.0,East,5.8,-,N/A,,Clear,90,2013-09-23 04:52:00
1:52 AM,52.0,45.0,77,30.02,10.0,East,3.5,-,N/A,,Clear,80,2013-09-23 05:52:00
2:52 AM,52.0,45.0,77,30.02,10.0,East,4.6,-,N/A,,Clear,80,2013-09-23 06:52:00
3:52 AM,52.0,46.0,80,30.02,10.0,ENE,6.9,-,N/A,,Clear,70,2013-09-23 07:52:00
4:52 AM,51.1,46.0,83,30.03,10.0,East,6.9,-,N/A,,Clear,80,2013-09-23 08:52:00
5:52 AM,50.0,45.0,83,30.05,10.0,ESE,3.5,-,N/A,,Clear,110,2013-09-23 09:52:00
6:52 AM,48.9,45.0,86,30.06,10.0,East,5.8,-,N/A,,Clear,80,2013-09-23 10:52:00
7:52 AM,50.0,45.0,83,30.09,10.0,East,4.6,-,N/A,,Clear,80,2013-09-23 11:52:00
8:52 AM,53.1,46.0,77,30.09,10.0,East,10.4,-,N/A,,Clear,100,2013-09-23 12:52:00
9:52 AM,57.0,46.9,69,30.10,10.0,East,8.1,-,N/A,,Clear,100,2013-09-23 13:52:00
10:52 AM,60.1,46.0,60,30.11,10.0,ESE,8.1,-,N/A,,Clear,120,2013-09-23 14:52:00
11:52 AM,63.0,46.9,56,30.10,10.0,ENE,6.9,-,N/A,,Partly Cloudy,70,2013-09-23 15:52:00
12:52 PM,64.9,46.9,52,30.10,10.0,Variable,4.6,-,N/A,,Partly Cloudy,0,2013-09-23 16:52:00
1:52 PM,66.0,46.9,50,30.09,10.0,ESE,8.1,-,N/A,,Clear,120,2013-09-23 17:52:00
2:52 PM,68.0,46.9,47,30.07,10.0,NE,10.4,-,N/A,,Clear,50,2013-09-23 18:52:00
3:52 PM,69.1,46.0,44,30.05,10.0,NE,10.4,-,N/A,,Clear,50,2013-09-23 19:52:00
4:52 PM,69.1,46.0,44,30.04,10.0,NE,10.4,-,N/A,,Clear,50,2013-09-23 20:52:00
5:52 PM,69.1,46.0,44,30.04,10.0,NE,11.5,-,N/A,,Clear,50,2013-09-23 21:52:00
6:52 PM,66.9,46.0,47,30.04,10.0,ENE,9.2,-,N/A,,Clear,70,2013-09-23 22:52:00
7:52 PM,62.1,46.9,58,30.04,10.0,East,6.9,-,N/A,,Clear,90,2013-09-23 23:52:00
8:52 PM,61.0,48.0,62,30.05,10.0,East,5.8,-,N/A,,Clear,90,2013-09-24 00:52:00
9:52 PM,59.0,48.0,67,30.06,10.0,East,6.9,-,N/A,,Clear,100,2013-09-24 01:52:00
10:52 PM,57.0,48.9,74,30.07,10.0,East,8.1,-,N/A,,Clear,90,2013-09-24 02:52:00
11:52 PM,55.9,48.9,77,30.07,10.0,East,8.1,-,N/A,,Clear,80,2013-09-24 03:52:00